GOES 17

Last updated on Tue Sep 22 2026 00:02:53 GMT+0000 (Coordinated Universal Time)

1 43226U 18022A 26264.54263093 -.00000186 00000+0 00000+0 0 9996 2 43226 1.1780 84.0791 0000833 125.1522 257.0658 1.00272851 31392
UTC large
Height (km)
Speed (km/s)
/
Latitude / Longitude
Inclination (degrees)
Orbital Period (minutes)
Azimuth
Elevation
Range (km)
Doppler Factor

Next 0 passes for location: London (51.5072 / 0.1276)

No passes found over London.
GOES 17